[TLELIST] Archives

 

[list_settings.list_name] Current TLEs

August 5th 2009 PDT

HST 1 20580U 90037B 09215.06186822 +.00000264 +00000-0 +74350-5 0 04298 2 20580 028.4686 156.3659 0003333 063.0370 297.0558 15.00819292856908 ISS (ZARYA) 1 25544U 98067A 09215.93642666 +.00004535 +00000-0 +36257-4 0 03470 2 25544 051.6405 061.6952 0007594 290.2882 208.8372 15.73482639613477 CXO 1 25867U 99040B 09216.70833333 -.00000233 +00000-0 +10000-3 0 03546 2 25867 065.6479 067.3803 7616754 275.6784 354.7079 00.37805023005197 ____________________________________________________________________ These 2-Line ...Continue Reading

[list_settings.list_name] Current TLEs

August 4th 2009 PDT

HST 1 20580U 90037B 09214.06437658 +.00000264 +00000-0 +74350-5 0 04282 2 20580 028.4686 162.8743 0003333 052.4361 307.6607 15.00819098856756 ISS (ZARYA) 1 25544U 98067A 09214.91120747 +.00002900 +00000-0 +24809-4 0 03405 2 25544 051.6400 066.9554 0007713 287.2769 160.5572 15.73469401613312 CXO 1 25867U 99040B 09214.08333333 -.00000359 +00000-0 +10000-3 0 03538 2 25867 065.6378 067.4670 7612831 275.6749 357.3778 00.37806106005188 ____________________________________________________________________ These 2-Line ...Continue Reading

[list_settings.list_name] Current TLEs

August 3rd 2009 PDT

HST 1 20580U 90037B 09211.20489523 +.00000241 +00000-0 +56284-5 0 04273 2 20580 028.4685 181.5421 0003158 022.0185 338.0570 15.00818437856324 ISS (ZARYA) 1 25544U 98067A 09213.83477708 +.00133469 +00000-0 +92643-3 0 03334 2 25544 051.6394 072.4795 0007331 277.0111 189.2970 15.73478508613146 CXO 1 25867U 99040B 09214.08333333 -.00000359 +00000-0 +10000-3 0 03538 2 25867 065.6378 067.4670 7612831 275.6749 357.3778 00.37806106005188 ____________________________________________________________________ These 2-Line ...Continue Reading

[list_settings.list_name] Current TLEs

August 2nd 2009 PDT

HST 1 20580U 90037B 09211.20489523 +.00000241 +00000-0 +56284-5 0 04273 2 20580 028.4685 181.5421 0003158 022.0185 338.0570 15.00818437856324 ISS (ZARYA) 1 25544U 98067A 09212.80748319 +.00005556 +00000-0 +42101-4 0 03261 2 25544 051.6403 077.7533 0006440 303.7541 098.0860 15.74220870612983 CXO 1 25867U 99040B 09214.08333333 -.00000359 +00000-0 +10000-3 0 03538 2 25867 065.6378 067.4670 7612831 275.6749 357.3778 00.37806106005188 ____________________________________________________________________ These 2-Line ...Continue Reading

[list_settings.list_name] Current TLEs

August 1st 2009 PDT

HST 1 20580U 90037B 09211.20489523 +.00000241 +00000-0 +56284-5 0 04273 2 20580 028.4685 181.5421 0003158 022.0185 338.0570 15.00818437856324 ISS (ZARYA) 1 25544U 98067A 09213.08242125 .00005036 00000-0 38563-4 0 3277 2 25544 051.6418 076.3387 0006603 306.4522 214.5713 15.74224774613026 CXO 1 25867U 99040B 09211.45833333 -.00000392 +00000-0 +10000-3 0 03527 2 25867 065.6277 067.5566 7606915 275.6774 000.0429 00.37806310005176 ____________________________________________________________________ These 2-Line ...Continue Reading

[list_settings.list_name] Current TLEs

July 31st 2009 PDT

HST 1 20580U 90037B 09208.21241285 +.00000264 +00000-0 +74649-5 0 04260 2 20580 028.4684 201.0699 0003246 349.8200 010.2333 15.00818011855877 ISS (ZARYA) 1 25544U 98067A 09210.84190236 +.00006591 +00000-0 +49196-4 0 03139 2 25544 051.6414 087.8478 0006397 294.2475 120.8267 15.74188738612673 CXO 1 25867U 99040B 09211.45833333 -.00000392 +00000-0 +10000-3 0 03527 2 25867 065.6277 067.5566 7606915 275.6774 000.0429 00.37806310005176 ____________________________________________________________________ These 2-Line ...Continue Reading

[list_settings.list_name] Current TLEs

July 30th 2009 PDT

HST 1 20580U 90037B 09208.21241285 +.00000264 +00000-0 +74649-5 0 04260 2 20580 028.4684 201.0699 0003246 349.8200 010.2333 15.00818011855877 ISS (ZARYA) 1 25544U 98067A 09210.45114583 -.00001421 00000-0 -53178-5 0 3110 2 25544 051.6407 089.8566 0006415 292.3152 066.8163 15.74176228612605 CXO 1 25867U 99040B 09208.79166667 -.00000280 +00000-0 +10000-3 0 03514 2 25867 065.6155 067.6246 7599199 275.7037 357.0050 00.37804842005167 ____________________________________________________________________ These 2-Line ...Continue Reading

[list_settings.list_name] Current TLEs

July 29th 2009 PDT

HST 1 20580U 90037B 09208.21241285 +.00000264 +00000-0 +74649-5 0 04260 2 20580 028.4684 201.0699 0003246 349.8200 010.2333 15.00818011855877 ISS (ZARYA) 1 25544U 98067A 09210.15820020 .00009493 00000-0 69106-4 0 3085 2 25544 051.6396 091.3568 0005868 294.7497 203.0644 15.74126778612560 CXO 1 25867U 99040B 09208.79166667 -.00000280 +00000-0 +10000-3 0 03514 2 25867 065.6155 067.6246 7599199 275.7037 357.0050 00.37804842005167 ____________________________________________________________________ These 2-Line ...Continue Reading

[list_settings.list_name] Current TLEs

July 28th 2009 PDT

HST 1 20580U 90037B 09206.08442539 +.00000309 +00000-0 +10919-4 0 04256 2 20580 028.4687 214.9614 0003231 327.9391 032.1003 15.00817983855551 ISS (ZARYA) 1 25544U 98067A 09209.20688262 .00009333 00000-0 68073-4 0 3028 2 25544 051.6402 096.2423 0005855 291.0713 212.1576 15.74106878612417 CXO 1 25867U 99040B 09208.79166667 -.00000280 +00000-0 +10000-3 0 03514 2 25867 065.6155 067.6246 7599199 275.7037 357.0050 00.37804842005167 ____________________________________________________________________ These 2-Line ...Continue Reading

[list_settings.list_name] Current TLEs

July 27th 2009 PDT

HST 1 20580U 90037B 09206.08442539 +.00000309 +00000-0 +10919-4 0 04256 2 20580 028.4687 214.9614 0003231 327.9391 032.1003 15.00817983855551 ISS (ZARYA) 1 25544U 98067A 09208.18457925 .00010686 00000-0 77346-4 0 2951 2 25544 051.6399 101.4933 0005870 286.5670 179.6300 15.74091377612256 CXO 1 25867U 99040B 09206.16666667 -.00000157 +00000-0 +10000-3 0 03500 2 25867 065.5986 067.6926 7594293 275.7397 359.5768 00.37805783005159 ____________________________________________________________________ These 2-Line ...Continue Reading
  • This mailing list is a public mailing list - anyone may join or leave, at any time.
  • This mailing list is announce-only.

International Space Station (ISS) / Hubble Space Telescope (HST) / Chandra X-Ray Observatory Orbital Data via EMAIL

Privacy Policy:

Private list